Location: ??????
(31.2031°N, 45.6084°E)
Time: 09:02:43
(UTC+00:00)

Daily predictions for brighter satellites

Satellite Brightness Start Highest point End
(mag) Time Altitude Azimuth Time Altitude Azimuth Time Altitude Azimuth
CZ-4B R/B 3.3 14:38:03 10° SSE 14:43:32 88° ENE 14:49:09 10° NNW
Cosmos 1315 Rocket 2.8 14:40:00 10° N 14:44:00 85° E 14:48:02 10° S
SL-24 R/B 4.2 14:41:26 10° S 14:45:43 85° WSW 14:50:11 10° NNW
Cosmos 1726 Rocket 3.6 14:45:36 10° N 14:49:55 57° E 14:54:14 10° SSE
DELTA 2 R/B (1) 3.6 14:45:09 10° WNW 14:50:44 88° NNE 14:56:18 10° ESE
Meteor 2-10 Rocket 4.0 14:45:51 10° N 14:50:52 38° ENE 14:55:40 10° SE
Cosmos 44 3.9 14:51:00 10° S 14:55:11 36° ESE 14:59:38 10° NE
BREEZE-M DEB (TANK) 2.2 14:53:27 10° NW 14:56:16 57° NE 15:00:54 10° ESE
Cosmos 1603 4.3 14:54:21 10° NNW 15:00:01 65° WSW 15:05:40 10° S
X-37B 2.8 14:59:57 10° WNW 15:02:12 18° NNW 15:04:28 10° NNE
Cosmos 2279 Rocket 4.1 14:56:30 10° N 15:02:47 90° WSW 15:09:02 10° S
SAR-Lupe-4 4.2 14:59:50 10° NNE 15:03:09 36° E 15:06:27 10° SSE
H-2A R/B 4.4 15:00:11 10° SSW 15:03:45 33° W 15:07:28 10° NNW
Cosmos 1538 Rocket 4.3 14:59:14 10° N 15:04:09 43° ENE 15:09:02 10° SE
CZ-2D R/B 3.5 15:02:12 10° SSE 15:05:53 45° ENE 15:09:34 10° N
COSMO-SKYMED 1 2.8 15:05:51 10° N 15:10:10 72° WNW 15:14:29 10° SSW
Aureole 3 3.8 15:11:07 10° NNE 15:13:40 23° ENE 15:16:06 10° SE
Lacrosse 5 3.4 15:10:39 10° N 15:13:52 17° NE 15:15:27 15° ENE
SAR-Lupe-1 4.2 15:10:25 10° NNE 15:13:53 51° E 15:17:21 10° S
Okean-O 3.3 15:13:49 10° SE 15:17:45 32° ENE 15:21:41 10° N
Okean O Rocket 3.3 15:14:50 10° SSW 15:18:59 38° W 15:23:07 10° NNW
Meteor 2-1 Rocket 4.4 15:15:08 10° N 15:20:26 45° E 15:25:40 10° SSE
ISS -1.0 15:22:05 10° WNW 15:23:35 12° NNW 15:25:04 10° N
NOSS 2-1 (C) 2.8 15:22:48 10° SSW 15:26:28 88° ESE 15:28:51 18° NNE
Helios 1A Rocket 3.7 15:23:41 10° SE 15:27:15 29° ENE 15:30:51 10° NNE
Cosmos 1602 Rocket 3.6 15:26:15 10° S 15:30:26 53° E 15:34:40 10° NNE
Cosmos 990 Rocket 3.9 15:27:01 10° S 15:32:12 71° ESE 15:37:23 10° NNE
NOSS 2-1 (D) 3.0 15:28:42 10° SSW 15:32:21 75° WNW 15:34:36 19° NNE
ARGOS 3.8 15:27:52 10° SE 15:32:32 32° ENE 15:37:13 10° N
YAOGAN 1 2.7 15:30:05 10° SSE 15:34:14 48° ENE 15:38:24 10° N
Cosmos 1340 2.7 15:32:42 10° S 15:36:19 50° E 15:38:28 22° NNE
Cosmos 1092 Rocket 3.9 15:30:23 10° S 15:36:33 70° E 15:42:41 10° N
USA 267 3.3 15:32:33 17° NE 15:37:39 62° SE 15:44:05 10° SSW
Cosmos 1455 2.0 15:35:20 10° N 15:39:08 73° E 15:42:57 10° S
Cosmos 1703 3.2 15:39:15 10° S 15:43:07 86° W 15:47:01 10° N
IRS-1C Rocket 4.2 15:38:36 10° S 15:43:50 81° WSW 15:49:07 10° NNW
CSL-04 Debris 4.4 15:40:15 10° SE 15:45:17 42° ENE 15:50:20 10° N
NOAA 15 4.5 15:42:01 10° SSE 15:47:13 72° ENE 15:52:27 10° N
Cosmos 1689 Rocket 3.6 15:46:17 10° N 15:48:55 34° WNW 15:51:31 10° SW
CZ-2C R/B 2.9 15:45:11 12° NNE 15:50:08 51° E 15:55:34 10° S
SJ 16-02 3.4 15:47:14 10° SW 15:51:00 28° WNW 15:54:47 10° N
ERS-2 4.1 15:48:51 10° NNW 15:52:00 28° WNW 15:55:08 10° SW
Cosmos 1812 Rocket 3.6 15:52:27 10° N 15:56:43 50° E 16:00:55 10° SSE
H-2A R/B 1.9 15:55:40 10° SSE 16:00:36 89° NW 16:05:39 10° NNW
Cosmos 1898 Rocket 3.8 15:58:28 10° SSW 16:03:43 67° WNW 16:08:17 14° N
CZ-2C R/B 4.2 15:58:53 10° S 16:03:47 45° W 16:08:59 10° NNW
Cosmos 158 Rocket 3.9 15:58:41 10° NNW 16:04:04 78° ENE 16:09:27 10° SSE
Cosmos 923 Rocket 3.9 16:00:30 10° NNW 16:05:50 73° ENE 16:11:06 10° SSE
IUS-9 SRM-1 4.0 16:05:40 10° SW 16:07:31 19° S 16:07:35 19° S
Cosmos 2098 Rocket 4.2 16:05:29 10° S 16:12:12 85° E 16:19:40 10° N
SJ-11-01 4.5 16:08:11 10° S 16:12:51 70° WSW 16:17:33 10° NNW
Cosmos 1680 Rocket 3.4 16:07:41 10° N 16:12:52 61° ENE 16:12:59 61° E
CZ-4 R/B 3.0 16:12:43 10° SSW 16:16:32 36° W 16:20:19 10° NNW
Meteor 1-11 4.2 16:12:58 10° S 16:18:43 89° W 16:22:31 22° N
GOES 2 Rocket 4.4 16:15:53 10° W 16:22:33 73° S 16:25:13 46° ESE
Hubble Space Telescope 1.5 16:19:53 10° W 16:23:17 50° SW 16:23:17 50° SW
Cosmos 2278 Rocket 2.0 16:19:31 10° SSW 16:25:09 77° ESE 16:25:33 73° ENE
Iridium 4 Rocket 3.9 16:22:45 10° N 16:28:10 62° W 16:33:05 10° SSW
CSL-04 Rocket 3.9 16:30:03 10° S 16:35:21 66° WSW 16:40:46 10° NNW
Cosmos 372 Rocket 4.5 16:33:02 10° SSW 16:36:50 51° SSW 16:36:50 51° SSW
Lacrosse 5 3.4 16:52:15 10° NW 16:54:44 29° NW 16:54:44 29° NW
NOSS 3-1 (C) 4.3 16:58:12 10° NNW 17:04:28 58° N 17:04:28 58° N
USA 267 4.5 17:19:54 32° NNW 17:20:18 32° NW 17:25:58 10° W
